GEFSMW_500_meanwind_006.txt.gz
Wind_Speed
44 45 47 48 46 46 47 46 38 32 26 20 19 21 22 23 23 23 24 25 24 21 18 16 15 16 17 17 17 17 17 17 18 17 16 15 14 13 14 16 18 20 20
39 40 40 40 43 45 42 37 31 28 26 21 20 21 20 20 21 21 22 23 24 22 20 19 18 17 17 17 17 17 18 19 19 18 17 16 15 13 13 14 16 18 21
35 36 37 40 42 41 38 33 28 25 24 22 20 19 19 18 19 18 18 18 20 21 20 19 19 19 19 20 21 20 20 20 20 19 19 18 18 17 15 14 15 15 18
34 36 38 39 39 38 36 33 30 27 25 24 21 21 21 17 17 19 20 18 18 19 20 20 20 20 21 21 22 22 22 22 22 23 22 20 20 20 20 17 15 16 18
33 36 37 38 39 39 38 35 33 31 30 29 28 27 25 24 24 24 25 24 21 20 20 21 22 23 23 23 23 24 24 23 24 25 25 23 21 20 21 21 19 16 18
32 37 40 41 41 42 41 41 40 39 39 38 37 34 32 32 32 30 30 29 27 25 23 22 23 24 26 27 27 27 27 26 25 26 25 24 23 22 21 22 21 19 18
38 42 44 44 44 45 47 48 48 47 46 45 44 42 40 39 38 38 36 35 33 31 30 28 26 26 27 30 30 30 30 30 28 28 27 27 25 24 23 22 21 20 20
43 45 47 48 49 50 50 50 50 49 49 48 47 46 45 44 44 44 44 43 42 39 37 36 33 32 31 32 33 33 34 33 31 30 29 29 28 27 25 23 21 19 20
47 51 53 55 56 57 58 56 55 53 53 53 52 51 50 49 49 49 49 50 50 49 47 45 42 40 38 37 37 36 36 34 33 32 32 31 31 30 29 27 24 21 20
52 54 56 59 60 62 63 63 62 60 59 58 58 57 55 54 53 53 53 54 54 54 54 54 52 49 46 45 44 42 40 38 36 35 34 33 32 33 32 31 29 25 22
53 55 57 59 61 63 65 67 68 68 67 67 66 65 63 61 59 58 57 57 57 57 57 57 56 55 53 53 52 49 47 45 42 40 38 36 35 34 33 32 31 29 25
55 58 59 61 62 64 67 70 72 74 75 74 73 71 69 67 65 64 63 62 61 61 60 61 61 60 58 56 56 55 53 51 49 46 43 41 38 36 34 33 31 30 26
58 60 62 64 66 68 70 72 72 71 68 65 62 61 60 59 58 59 61 62 64 65 66 65 65 64 63 60 59 58 56 55 53 51 48 44 40 37 35 33 31 29 26
61 64 67 69 69 68 66 63 58 54 51 49 47 45 44 41 37 37 40 45 51 58 65 69 70 70 68 65 63 60 57 56 53 51 49 45 41 38 36 33 31 29 27
64 65 64 61 57 53 51 49 49 50 49 46 42 38 34 31 28 28 29 31 34 39 46 54 62 68 71 71 70 66 62 57 54 51 48 46 43 41 39 36 32 29 28
59 56 53 51 51 51 53 53 53 52 50 47 43 39 36 35 35 36 35 34 34 35 36 39 44 51 59 67 72 72 67 62 57 52 49 47 45 44 42 39 35 31 28
53 52 52 53 54 56 57 58 58 57 55 52 49 46 45 44 45 44 43 40 38 36 35 34 35 38 44 53 62 69 71 67 61 55 51 48 46 45 44 42 39 33 28
52 53 54 55 56 58 59 61 61 60 58 56 55 53 53 52 51 49 48 46 44 41 38 36 34 33 35 40 47 57 66 69 66 60 54 49 45 44 44 44 41 34 29
53 56 57 58 60 62 63 64 62 60 58 57 56 56 57 56 55 52 50 48 46 44 42 40 37 34 32 33 36 41 52 60 64 62 56 51 47 44 43 44 43 37 31
55 57 59 61 63 64 64 62 58 56 54 52 50 50 53 55 55 54 52 49 47 44 42 42 40 37 34 31 30 31 38 48 56 59 56 52 49 45 43 43 43 40 32
55 58 60 63 65 64 60 56 53 51 50 47 44 43 43 46 49 50 50 49 48 44 43 43 41 38 34 32 30 27 28 37 47 54 55 54 52 49 46 44 44 41 35
54 57 61 64 65 62 57 53 51 50 47 43 39 36 35 36 39 42 44 45 45 44 42 42 41 39 36 35 33 29 25 27 38 50 55 55 52 49 47 45 44 41 35
53 57 61 64 64 61 56 52 50 48 43 36 31 28 26 26 28 31 34 36 38 39 39 39 38 38 38 37 34 30 25 23 30 44 52 53 51 48 46 44 42 40 35
52 57 61 63 63 60 56 52 49 45 39 31 25 22 21 21 22 24 25 27 30 32 33 34 34 36 37 36 34 32 27 22 24 37 47 52 52 49 47 45 42 39 34
53 58 61 63 62 60 56 51 48 45 39 30 24 20 19 19 18 19 20 21 23 25 28 30 31 33 35 34 33 32 28 23 23 33 44 51 52 50 46 45 43 39 34
53 57 60 61 61 59 55 51 49 47 42 33 23 17 14 14 14 14 15 16 17 20 23 26 28 31 33 33 33 32 30 26 24 31 39 48 51 49 47 46 44 40 33

GEFSMW_500_meanwind_012.txt.gz
Wind_Speed
36 38 39 39 40 40 39 37 35 33 30 27 25 23 19 18 18 19 21 23 25 26 26 27 27 27 27 27 27 27 27 27 27 26 25 23 22 20 20 19 17 16 15
39 39 38 38 38 37 36 35 34 32 30 28 25 23 22 20 19 20 21 23 25 25 25 25 25 26 27 28 28 26 25 25 26 25 24 23 22 21 20 19 17 15 14
34 34 35 35 35 35 35 35 36 35 34 31 28 25 24 24 23 23 23 24 25 26 25 24 24 25 27 28 29 28 26 26 26 26 25 24 23 22 22 21 19 17 16
29 30 31 32 34 36 38 40 40 40 39 36 33 31 29 29 29 29 29 28 28 29 28 27 26 26 27 29 30 30 29 28 28 28 27 26 25 24 24 23 21 20 19
31 33 35 37 39 41 43 45 46 46 44 43 41 39 37 36 35 36 35 35 35 34 33 31 30 30 30 31 32 33 33 32 31 31 30 29 27 26 26 24 22 21 21
35 37 39 41 43 44 46 47 47 47 47 46 45 44 43 42 42 41 41 41 41 41 40 39 37 36 35 35 35 36 36 35 35 34 33 32 29 27 27 26 24 22 21
37 39 40 41 42 43 43 44 44 45 46 47 47 47 47 47 47 46 46 46 47 47 47 46 44 42 41 40 40 39 39 39 38 38 37 36 33 30 28 27 26 24 23
38 39 40 40 40 41 43 44 45 46 47 48 49 49 50 50 51 51 51 51 52 53 53 52 51 49 47 47 45 44 43 43 43 42 41 39 37 34 32 30 28 27 26
39 41 42 43 45 47 49 50 50 48 46 44 43 44 46 48 51 54 56 57 57 58 59 59 58 56 54 52 51 49 48 47 46 46 45 44 42 38 36 33 31 30 29
41 43 45 47 50 53 53 52 50 46 43 41 40 40 40 42 43 46 51 57 61 63 64 64 63 63 61 59 56 55 54 52 50 49 49 48 47 43 40 37 35 32 30
45 47 50 53 55 55 52 49 48 47 47 47 47 47 46 46 46 45 45 47 52 59 66 68 68 68 67 66 64 61 58 55 53 53 52 51 50 48 44 41 38 35 32
49 51 54 57 56 52 48 47 48 49 51 52 54 54 55 53 51 50 49 48 48 50 56 63 69 72 72 71 70 68 65 62 59 57 56 54 53 51 48 45 41 38 34
50 53 57 56 51 47 46 48 50 52 55 57 58 59 60 60 58 56 53 51 51 50 51 53 59 68 74 76 75 73 72 69 66 62 60 58 57 55 52 49 45 41 37
51 55 55 49 44 45 48 50 53 56 59 62 64 64 64 63 62 60 56 53 51 50 50 51 52 56 64 73 78 77 76 74 72 70 66 61 59 56 54 52 48 45 40
54 54 48 42 42 45 48 51 55 59 62 65 67 66 66 64 63 59 55 52 50 49 49 48 49 50 51 57 67 75 77 76 75 73 71 66 61 57 55 54 51 47 43
53 49 42 41 43 46 49 54 58 62 65 66 66 65 63 61 59 55 52 49 48 48 47 47 46 45 44 44 49 57 67 74 76 75 73 71 67 61 56 54 52 50 45
51 45 41 42 44 48 52 57 61 63 64 64 62 60 58 56 53 51 49 47 45 46 47 47 46 44 42 40 38 39 46 56 66 73 74 72 69 65 60 56 53 51 47
49 44 42 43 47 51 56 60 62 63 63 61 61 60 57 54 52 49 46 44 43 45 47 49 47 45 43 40 38 36 36 39 47 58 67 72 71 66 62 58 54 51 48
48 45 44 46 49 53 57 60 62 62 62 63 63 60 56 51 47 43 42 41 41 42 46 49 50 48 45 43 40 39 37 35 36 41 51 61 67 68 65 60 54 51 48
49 46 46 48 51 55 58 61 61 61 62 62 60 56 49 44 38 34 32 33 35 37 43 48 49 50 48 45 42 40 37 35 34 34 38 46 55 63 65 61 56 51 49
49 46 47 49 52 56 59 60 59 60 61 61 58 52 45 39 32 27 25 26 30 34 38 43 47 48 48 47 44 41 38 35 33 32 32 36 43 53 60 60 57 53 50
49 47 47 49 53 56 58 59 58 58 59 58 54 48 42 34 27 23 20 20 22 28 32 38 44 47 48 46 44 42 38 35 32 31 30 31 35 43 53 58 57 54 51
50 47 47 49 52 56 58 58 57 56 57 55 50 45 40 32 25 19 15 13 14 18 26 32 38 42 44 45 43 41 37 34 32 31 28 27 30 37 47 53 55 54 51
50 47 46 48 51 55 57 57 56 55 54 52 48 44 38 32 24 18 14 9 8 12 18 24 32 38 41 41 41 39 35 32 31 30 28 26 27 34 43 50 52 51 49
52 48 46 47 50 53 55 55 54 52 50 49 47 43 39 33 27 20 15 10 5 4 10 16 22 28 33 37 38 35 34 32 31 29 28 26 26 33 43 49 48 47 47
52 48 45 45 48 51 53 54 52 50 48 47 46 42 38 33 29 24 18 13 7 2 3 10 15 21 26 29 31 31 32 33 31 28 26 25 28 36 46 49 48 47 47

GEFSMW_500_meanwind_018.txt.gz
Wind_Speed
26 28 30 31 32 32 32 32 33 34 34 34 35 35 36 35 33 32 31 30 29 28 28 29 30 31 33 33 33 33 34 34 33 32 32 32 32 32 30 28 26 24 23
25 26 27 29 30 31 32 34 36 37 38 38 39 39 39 38 37 36 35 34 33 32 30 29 29 29 31 32 32 32 33 33 33 32 31 31 31 31 30 29 26 25 22
25 27 28 30 32 34 36 38 39 40 41 42 42 42 42 41 41 39 38 38 37 36 35 33 32 31 30 30 31 31 31 31 32 32 30 29 30 30 29 28 26 25 23
27 29 31 34 36 37 38 40 41 42 43 44 44 44 44 44 43 42 42 42 41 41 41 39 38 36 34 33 32 32 31 31 31 32 31 30 29 29 29 29 27 26 24
30 32 34 35 37 38 39 40 41 43 44 45 46 47 47 47 47 46 46 45 45 46 46 46 44 42 40 38 36 34 33 32 31 32 32 31 31 31 31 30 29 28 26
33 34 35 36 37 38 40 41 43 45 47 49 50 52 52 52 52 51 51 50 50 49 50 50 50 49 47 44 42 40 38 36 34 33 33 34 34 34 34 33 32 30 28
34 34 34 36 37 39 41 43 45 46 48 50 52 52 52 51 51 50 50 50 51 52 53 53 54 54 53 51 49 47 45 42 39 37 36 36 37 37 37 36 35 33 31
32 34 36 37 39 40 42 43 45 47 48 48 46 44 43 42 42 42 43 44 45 48 51 53 56 57 58 57 56 54 52 49 46 43 41 39 39 40 40 39 38 36 33
34 36 37 39 41 42 43 45 48 47 44 40 37 36 37 38 40 41 42 44 45 46 48 50 53 56 59 61 61 60 58 56 53 50 47 44 43 42 42 42 41 39 37
36 38 40 41 43 45 47 47 47 44 39 36 35 36 37 39 41 42 44 46 47 49 51 52 53 55 57 60 63 64 64 62 60 57 53 50 48 46 45 45 44 43 41
37 39 40 42 44 46 47 46 44 41 38 37 37 39 42 44 46 48 50 51 53 54 56 57 58 58 59 60 62 64 66 67 65 64 62 56 52 50 49 48 47 46 44
38 39 41 42 44 45 45 44 42 40 39 39 41 44 46 49 51 54 55 57 58 59 60 61 62 62 62 62 63 64 66 68 69 69 68 64 59 56 53 52 51 49 47
38 39 41 43 45 45 44 43 42 41 41 42 45 47 50 53 55 58 59 60 61 61 61 61 63 64 65 66 65 65 65 67 69 71 71 71 67 61 57 55 54 52 50
39 41 42 44 45 45 44 43 42 42 43 45 48 50 53 56 58 60 62 62 63 63 62 62 62 63 64 66 66 66 66 66 68 71 73 74 73 68 63 58 56 55 53
41 42 43 44 45 45 44 43 42 42 44 47 50 52 54 56 58 60 61 61 61 60 59 58 59 61 62 64 65 65 66 66 67 68 71 74 76 73 69 63 57 56 55
41 42 43 44 45 45 44 42 42 43 46 49 51 53 54 56 58 58 57 57 55 52 51 51 53 54 57 59 61 63 63 63 63 65 67 70 74 76 73 68 63 58 57
43 43 44 45 46 46 44 43 43 45 48 50 52 53 54 56 57 56 54 52 48 45 44 44 46 49 51 53 56 59 59 59 57 59 61 64 69 72 75 73 69 63 58
45 45 46 46 47 47 45 44 45 46 49 51 52 53 55 56 55 53 51 47 42 38 36 36 37 42 46 48 51 54 54 53 51 50 52 56 59 66 71 74 72 68 62
48 48 48 48 48 47 46 44 45 47 49 51 52 53 54 54 53 50 47 43 37 33 30 29 30 33 39 43 46 47 47 47 45 43 44 47 50 56 64 69 71 68 65
50 49 49 49 48 47 46 44 45 47 49 50 50 52 53 52 50 48 44 38 33 28 25 22 23 27 32 37 40 42 42 42 41 40 39 40 43 47 53 59 65 68 68
51 50 50 49 49 48 46 44 45 47 48 49 49 50 51 50 48 46 41 35 30 25 21 17 17 22 27 32 36 38 40 40 39 38 36 35 36 39 43 48 54 61 65
51 51 49 49 49 48 46 44 44 46 47 47 48 49 49 47 45 43 39 34 29 24 19 14 13 18 24 28 33 36 39 39 37 35 34 32 31 32 35 39 45 52 59
51 50 49 48 48 48 46 44 44 45 45 46 46 47 47 45 43 40 37 33 28 23 17 11 8 14 20 25 31 35 37 37 37 34 31 29 28 28 29 32 38 45 51
51 49 48 47 47 47 46 44 43 44 44 45 45 45 45 43 41 39 36 32 27 22 16 9 6 12 18 24 28 33 35 35 34 32 30 28 27 27 27 28 31 38 45
50 48 47 47 47 47 45 43 42 43 43 43 43 44 44 42 39 37 34 31 27 22 16 9 4 9 16 22 26 30 32 33 33 31 30 29 28 27 26 27 28 33 40
49 47 46 46 46 46 44 42 41 42 42 42 41 42 42 40 37 35 32 30 27 22 16 10 2 8 14 19 24 27 29 30 29 29 28 28 29 29 27 27 28 30 37

GEFSMW_500_meanwind_024.txt.gz
Wind_Speed
22 24 25 27 28 30 31 33 34 35 36 37 38 38 38 39 40 39 38 38 38 39 39 38 37 36 35 33 32 29 28 28 28 29 30 30 30 29 29 29 28 26 25
23 24 26 27 29 31 32 34 35 37 38 39 39 39 39 40 41 41 40 40 39 40 41 40 39 38 37 35 34 32 31 30 29 30 29 30 30 30 29 29 29 28 27
23 25 28 29 31 33 35 35 36 37 38 39 41 41 41 42 43 43 43 42 41 42 43 43 42 41 40 38 37 36 34 32 31 29 29 30 30 29 29 29 29 29 29
26 28 30 32 34 35 36 37 37 38 39 41 43 43 44 44 45 46 46 45 44 44 45 45 45 44 43 42 40 39 38 36 34 31 30 30 30 29 28 29 29 29 29
29 30 31 32 33 35 37 38 39 40 41 42 44 45 46 47 48 49 49 49 48 47 46 46 46 45 45 44 43 42 40 39 37 35 32 31 31 31 30 29 28 29 30
30 30 31 32 33 35 37 39 40 41 41 43 44 46 47 47 48 49 49 49 47 46 44 43 41 40 42 42 43 43 43 42 40 39 37 34 33 32 32 30 30 29 30
29 30 32 33 34 35 36 37 39 40 41 42 43 44 45 45 46 46 45 45 43 42 41 40 39 37 37 39 40 40 42 43 43 42 41 39 37 35 33 32 31 31 31
30 31 32 33 33 33 34 36 37 39 40 41 42 43 43 44 44 43 43 42 42 41 41 42 42 41 39 39 40 41 41 42 44 44 44 43 42 39 36 35 33 33 32
31 31 32 32 33 34 35 36 38 39 40 41 42 42 43 42 42 41 41 41 42 42 43 45 46 46 46 45 45 45 45 44 44 45 46 46 45 43 41 39 37 35 34
32 33 33 33 34 36 37 38 39 40 40 41 42 42 42 41 41 41 41 41 43 44 46 48 50 51 52 52 52 51 50 49 48 47 48 48 48 47 45 42 40 38 38
33 33 34 35 36 37 39 40 41 41 41 42 42 42 42 42 41 42 42 43 44 45 47 50 52 54 56 58 58 58 57 55 53 52 51 51 51 51 49 47 44 42 41
34 35 36 36 37 38 40 41 42 43 43 43 43 44 43 42 42 42 43 44 45 47 48 50 52 54 57 59 61 63 62 61 59 57 56 55 54 54 52 51 49 46 44
36 37 38 38 39 40 41 43 43 44 44 45 45 45 44 42 42 43 44 45 46 48 49 51 53 55 57 60 62 65 66 65 64 62 60 59 58 56 56 54 53 51 49
39 40 40 40 41 41 43 43 44 44 45 45 45 45 43 42 43 44 45 46 48 49 50 51 53 55 57 58 60 63 65 66 65 64 63 62 61 59 58 58 57 54 53
40 42 42 42 42 43 44 44 44 44 45 45 45 45 43 43 43 44 46 47 48 49 51 51 52 53 54 54 55 57 59 61 62 62 61 61 62 61 60 60 60 58 55
41 43 43 43 44 45 45 45 45 46 47 47 46 45 44 43 43 45 46 48 49 50 51 50 50 49 48 48 48 49 52 54 55 55 55 57 59 61 61 61 60 60 58
42 44 45 45 46 46 47 47 47 48 48 48 47 45 44 43 44 46 47 48 49 49 49 48 47 45 44 44 43 43 44 46 48 49 50 52 55 57 59 61 61 61 60
44 45 46 46 47 47 48 48 49 50 50 49 47 45 44 43 45 46 48 49 48 47 47 45 43 41 40 39 38 37 37 38 41 44 44 47 49 52 53 56 59 60 59
45 45 46 47 47 48 48 49 50 50 50 49 47 44 43 43 44 46 47 47 46 45 44 42 40 39 37 36 34 31 30 32 36 39 40 42 44 45 47 49 53 56 58
44 44 45 47 48 49 50 51 51 51 50 48 45 43 43 43 44 46 46 45 44 43 42 40 39 36 34 30 26 23 22 26 31 35 37 38 39 42 44 45 46 49 52
44 44 46 47 49 50 50 51 51 51 50 47 44 42 43 43 44 44 44 43 42 41 40 38 36 33 29 24 19 15 17 20 26 31 34 36 37 39 40 42 43 45 47
44 44 45 47 49 50 51 51 51 50 49 46 43 42 42 43 43 43 42 40 39 38 38 37 34 30 24 18 13 11 13 19 24 27 30 33 34 36 37 39 41 42 44
43 44 45 47 49 50 51 51 51 50 48 45 43 41 42 42 42 41 40 39 37 37 36 35 31 25 19 14 9 8 11 18 23 26 28 30 32 33 34 36 38 39 40
43 43 45 46 48 50 51 51 51 50 48 44 42 41 41 41 41 40 38 36 35 35 34 32 28 22 16 11 5 7 12 18 22 25 28 29 30 31 32 33 35 36 38
43 44 45 47 48 50 51 51 51 49 47 44 41 41 41 40 39 38 36 34 33 32 32 30 26 20 13 7 3 6 12 19 22 25 26 27 27 29 29 31 32 34 35
43 44 46 47 48 49 50 51 50 49 47 43 41 40 40 40 38 36 34 33 31 30 30 28 24 19 11 4 2 8 13 18 21 22 23 24 25 26 27 28 30 31 33

GEFSMW_500_meanwind_030.txt.gz
Wind_Speed
15 17 19 21 23 26 28 31 33 34 36 37 37 38 37 37 37 37 36 35 35 35 35 35 35 35 34 34 33 32 29 28 26 24 23 23 22 22 25 26 27 28 30
13 15 18 21 23 25 28 30 31 33 34 35 35 36 35 35 35 36 35 35 34 35 35 35 36 36 35 35 35 34 32 31 29 27 25 24 23 23 24 26 27 29 30
12 14 17 19 21 23 25 26 28 30 31 32 33 34 34 35 34 35 35 34 33 33 33 33 34 35 35 35 35 35 34 33 32 29 28 26 25 24 24 25 26 27 29
12 14 17 19 21 23 24 26 27 29 30 31 32 33 33 34 34 34 34 35 35 34 34 33 32 32 33 33 34 34 34 34 34 32 31 30 28 27 26 25 25 27 28
14 17 19 21 23 24 25 26 27 28 30 31 32 33 34 34 35 35 35 36 36 36 35 34 32 31 31 31 31 32 33 34 35 35 34 32 31 30 29 27 26 27 28
19 21 23 24 26 27 27 28 29 29 31 32 33 35 35 36 37 37 37 37 37 37 37 35 33 32 31 30 30 30 30 31 33 35 36 36 34 33 32 30 29 28 29
24 26 28 29 30 31 31 31 31 32 33 34 35 36 37 37 38 38 38 38 38 38 38 38 36 34 32 30 30 31 31 31 31 33 35 37 37 37 35 33 32 31 30
27 29 31 33 34 35 35 35 35 35 35 36 36 37 38 38 39 39 39 39 39 39 40 40 39 37 35 33 32 32 33 34 33 34 35 36 37 39 39 37 35 33 32
29 32 34 35 37 37 37 37 37 37 37 37 37 38 38 38 38 39 39 40 40 41 40 41 41 41 39 37 36 34 35 36 36 36 37 37 38 39 41 41 39 36 34
30 33 35 37 38 38 38 38 38 38 38 38 38 38 38 38 39 40 40 41 42 42 42 42 42 42 41 41 40 39 38 38 39 39 39 40 41 41 41 43 43 41 38
30 33 36 37 38 39 39 39 39 38 38 38 38 39 39 40 41 42 42 43 43 42 42 42 41 41 42 42 42 42 42 41 41 42 43 43 45 45 44 44 45 44 43
31 33 36 37 38 39 39 38 38 38 39 39 39 40 41 42 43 44 44 43 43 42 41 41 41 41 41 42 43 44 44 44 44 44 45 46 48 49 49 48 47 47 47
31 34 37 38 39 38 37 38 38 39 40 40 41 42 43 44 45 45 44 43 42 41 40 39 40 41 42 42 44 45 46 47 48 48 48 49 50 52 53 53 52 50 49
33 36 38 38 38 38 38 39 40 41 42 43 44 44 45 45 45 45 44 42 41 39 39 39 40 41 42 43 45 46 47 49 50 51 51 52 53 54 56 57 57 55 53
34 36 37 38 39 39 40 41 42 43 44 45 46 46 46 47 46 45 43 41 39 39 39 39 40 42 43 44 45 46 47 49 50 52 53 53 54 55 58 60 61 60 58
34 35 37 38 40 40 41 42 43 45 46 47 47 47 47 47 46 44 41 40 39 39 39 40 41 42 43 44 45 45 46 47 48 50 52 54 54 55 57 60 63 64 63
34 36 38 39 40 41 42 43 45 46 47 48 49 49 49 47 45 43 41 40 40 39 40 41 42 41 42 43 43 44 45 46 46 47 49 51 52 54 56 59 63 66 67
35 37 39 40 40 42 43 44 46 47 48 49 49 50 49 48 45 43 42 41 40 40 41 41 41 41 41 41 42 43 44 43 44 45 47 48 50 52 54 57 62 66 68
37 39 40 40 41 42 44 45 47 47 48 49 49 50 49 47 45 43 41 40 40 40 40 40 40 40 40 41 41 41 42 41 42 43 43 44 47 50 52 55 60 65 68
38 40 40 41 42 43 44 45 47 47 48 48 49 49 49 47 45 43 41 40 40 40 39 38 38 39 39 39 39 39 38 37 36 36 38 40 43 46 49 52 57 63 67
38 40 41 42 43 44 44 46 46 47 47 48 49 49 49 48 45 43 41 40 40 39 38 37 37 38 38 36 35 34 32 30 29 29 30 32 37 41 45 49 53 59 64
39 40 41 42 43 45 45 46 46 46 47 48 49 49 49 48 45 43 41 40 40 38 37 36 36 37 36 32 30 28 26 24 22 20 22 25 30 35 40 44 49 54 59
40 41 41 43 44 45 45 45 46 46 47 48 49 49 49 47 45 42 41 40 39 38 37 35 35 34 32 28 26 24 21 17 14 12 14 19 25 29 35 40 46 49 53
42 42 43 44 45 45 45 45 45 46 47 47 48 48 48 46 44 42 41 40 39 37 36 34 33 32 29 25 23 21 16 11 7 5 8 15 21 26 32 37 42 44 47
43 43 44 45 46 46 45 46 46 46 47 47 47 48 47 45 43 41 40 39 37 36 34 32 31 29 26 23 21 17 12 7 3 2 7 13 18 22 28 32 36 40 44
44 44 46 47 48 48 47 47 46 46 46 46 46 46 46 44 42 40 39 38 36 35 33 31 29 26 23 20 18 14 10 6 2 4 8 12 16 20 25 31 33 37 41

GEFSMW_500_meanwind_036.txt.gz
Wind_Speed
12 13 14 15 17 19 21 22 24 26 27 28 29 29 29 30 30 30 30 29 29 30 30 31 31 32 33 33 34 33 33 32 32 31 30 30 28 27 26 25 25 26 27
9 11 13 15 17 19 21 23 25 26 27 28 28 29 29 29 29 29 29 29 29 29 29 30 31 31 32 32 33 33 33 33 33 33 32 31 30 29 27 26 26 26 27
7 10 13 16 18 20 21 23 24 26 27 28 29 29 30 30 30 30 30 30 30 30 29 30 31 31 31 32 32 32 33 33 34 34 34 33 33 31 30 28 27 27 27
7 10 12 15 16 18 20 21 23 24 25 26 27 28 29 29 30 31 31 31 31 30 30 30 31 31 31 32 32 32 32 33 34 34 34 34 34 34 33 31 30 29 29
7 9 12 14 16 17 18 20 21 22 23 24 25 26 26 27 28 29 30 30 30 30 30 30 31 31 32 32 32 32 32 33 33 34 34 35 36 36 36 35 34 32 32
7 10 12 14 15 17 19 20 22 22 23 24 25 25 25 26 27 27 28 29 29 30 30 31 31 32 33 33 34 34 34 34 33 33 34 35 37 37 37 38 37 36 34
9 11 12 14 16 18 20 22 23 24 24 25 26 26 26 26 27 27 28 29 30 31 32 33 34 35 35 36 36 36 36 36 35 35 35 35 37 38 38 39 40 39 38
11 12 14 15 17 19 22 23 25 26 26 27 27 27 27 27 28 29 30 31 32 33 35 36 37 37 38 38 38 38 38 38 38 38 37 37 37 38 39 40 41 41 41
12 13 15 17 19 21 24 26 27 28 29 29 29 30 30 30 31 32 32 33 34 35 37 38 39 40 40 39 39 39 39 39 39 39 39 39 39 39 40 41 42 43 43
14 15 17 19 22 24 26 29 30 30 31 31 32 33 33 34 34 35 36 37 38 38 39 39 40 40 40 40 39 39 39 39 40 40 41 41 41 41 42 42 43 44 44
16 18 20 22 24 26 29 30 31 32 32 33 34 35 36 36 37 38 39 39 40 40 40 40 39 39 39 39 38 38 38 38 38 39 40 42 43 44 44 44 44 45 46
19 20 22 24 26 28 30 31 32 33 34 35 36 37 38 38 39 40 41 42 42 42 41 40 40 39 38 37 36 37 37 37 37 38 40 41 43 45 46 47 47 47 47
21 22 24 25 27 28 30 32 33 34 35 36 37 38 39 40 41 42 43 44 44 43 42 42 40 39 37 36 36 36 36 37 37 38 39 40 42 44 46 47 48 49 49
23 24 25 26 28 29 31 33 35 36 37 38 39 40 41 42 43 44 45 46 45 45 44 43 41 39 37 36 36 35 35 36 38 39 40 41 43 44 46 47 49 50 51
24 24 25 27 29 31 33 35 37 37 39 40 41 41 42 43 44 45 46 47 46 46 45 44 42 40 38 37 36 36 36 37 38 40 41 43 44 46 47 49 51 52 53
24 25 27 29 31 34 36 38 39 39 40 41 42 42 43 44 45 46 47 47 47 47 46 44 42 39 38 37 37 37 37 37 38 39 41 43 44 46 48 50 52 54 55
26 27 29 31 34 36 38 40 40 41 41 42 42 43 45 46 47 48 48 48 47 47 46 44 42 40 39 39 38 38 37 37 38 39 41 43 45 47 48 50 52 55 57
27 29 31 34 36 38 40 41 41 42 42 43 43 45 46 47 48 49 49 48 48 47 45 43 42 40 40 39 39 39 39 39 39 40 41 43 45 47 49 50 51 54 57
29 31 33 36 38 40 41 42 42 43 43 44 45 46 47 48 49 49 49 48 47 46 45 43 42 40 40 40 39 39 39 38 38 39 39 40 43 46 49 50 51 53 56
31 33 35 38 40 41 42 42 43 43 44 45 47 48 49 50 49 49 49 48 47 45 44 43 42 40 39 38 38 38 36 35 35 36 36 38 40 43 46 49 50 52 54
33 35 38 40 41 42 43 43 44 44 45 47 49 50 51 51 50 49 49 47 45 44 43 42 41 40 38 37 37 35 34 33 32 32 33 34 35 37 41 45 48 50 54
36 38 40 41 43 43 43 45 46 47 49 50 52 52 52 51 50 49 48 46 44 43 42 41 40 39 37 36 35 33 32 31 30 29 30 30 31 33 35 38 42 47 52
38 40 41 42 43 43 45 46 48 50 52 53 54 54 54 52 50 48 46 44 43 41 40 40 38 36 36 35 33 32 30 28 27 27 26 26 26 26 27 30 34 40 46
39 40 41 42 43 44 46 48 50 52 54 55 55 56 54 52 49 46 44 42 41 40 39 38 36 35 35 34 32 29 26 26 25 24 22 21 20 19 19 23 27 33 39
40 40 42 43 45 46 48 50 52 54 56 56 57 56 54 50 47 45 43 41 40 39 38 36 35 34 34 32 30 27 25 24 23 21 19 18 16 14 13 15 20 25 32
40 41 43 45 47 48 50 52 55 57 57 58 57 55 51 48 45 43 42 41 40 38 37 35 34 33 32 30 28 26 23 22 20 19 17 16 13 9 7 9 14 19 26

GEFSMW_500_meanwind_042.txt.gz
Wind_Speed
10 9 6 5 6 7 8 10 12 13 15 16 17 18 19 19 19 19 20 20 21 21 22 23 23 24 25 25 25 25 25 26 26 27 27 28 29 29 30 30 29 29 28
6 4 2 3 5 7 9 11 13 15 16 17 18 19 20 20 20 20 19 19 20 21 21 22 23 24 24 25 25 25 26 26 26 26 27 28 29 30 31 31 31 31 30
1 1 2 4 7 9 12 13 15 16 18 18 18 19 19 19 19 19 19 18 18 19 20 21 22 23 23 24 24 25 26 27 27 27 27 28 30 30 31 31 32 32 32
3 3 4 6 9 11 13 15 16 17 17 18 18 18 18 18 18 18 17 17 17 17 18 19 19 21 22 23 24 25 26 27 27 28 29 29 30 31 31 31 32 32 33
4 5 7 9 11 13 15 16 16 17 17 17 17 17 18 18 18 18 17 17 17 17 18 18 19 20 22 23 24 25 27 28 29 30 30 31 31 32 33 33 33 33 34
7 8 10 11 13 15 16 16 17 17 17 18 18 18 18 19 19 19 19 18 18 18 19 20 21 22 23 24 26 27 29 30 31 33 33 34 34 35 35 35 36 36 36
10 11 12 13 15 16 17 17 18 18 18 18 18 18 19 20 20 20 20 20 20 20 21 22 23 24 25 26 28 29 30 31 33 34 35 36 37 37 38 38 38 39 39
12 13 14 15 17 17 18 18 19 19 19 19 19 20 21 22 22 22 22 23 23 24 25 26 26 27 27 29 30 31 32 33 34 36 37 38 39 40 40 41 41 41 42
14 15 16 17 18 18 19 19 20 20 20 21 21 22 23 23 24 24 25 25 26 27 28 29 30 30 31 31 32 33 33 34 35 36 37 39 40 41 41 42 43 43 44
15 16 17 18 18 19 19 20 20 20 21 22 23 24 25 25 26 27 27 28 28 29 30 32 33 34 34 35 35 35 35 35 36 36 37 38 40 41 42 43 44 45 46
16 16 17 17 18 19 19 20 20 21 22 23 25 26 27 27 28 29 29 30 31 32 33 34 36 37 37 38 38 37 37 36 36 36 37 37 39 40 42 43 44 45 47
15 16 17 17 18 19 19 20 21 22 24 25 27 28 28 29 30 31 32 33 34 36 37 38 39 40 41 41 40 39 38 37 36 36 37 37 38 39 40 42 43 44 46
16 16 17 17 18 18 19 20 22 24 26 27 28 29 30 31 33 33 34 36 37 38 40 41 42 43 43 42 41 40 39 37 37 36 36 36 37 38 39 40 42 43 45
17 17 17 18 18 19 20 22 24 26 28 29 30 31 32 33 34 35 37 39 40 42 43 44 45 45 44 43 42 40 39 37 36 36 35 35 36 37 38 39 40 42 44
17 17 17 18 19 20 22 24 26 28 29 30 31 32 34 35 36 38 40 42 43 45 46 46 46 45 44 43 41 40 38 37 36 35 35 35 35 36 37 38 40 41 43
17 18 18 19 21 22 24 27 28 29 30 31 32 33 35 36 38 41 43 45 46 47 47 47 45 44 43 42 40 38 36 36 35 35 35 35 34 35 36 38 40 42 43
18 19 20 21 23 25 27 29 30 31 31 32 33 34 36 37 40 43 45 47 47 47 47 46 44 43 42 40 38 36 35 34 34 34 34 34 34 35 35 37 39 41 43
20 21 22 24 26 27 29 31 31 32 32 33 35 36 37 40 43 46 48 49 49 48 47 45 43 41 40 38 36 35 33 32 32 32 33 33 34 35 36 37 38 40 42
22 23 24 26 28 30 32 33 33 32 33 34 36 37 40 42 45 48 50 50 50 48 45 43 41 39 38 36 35 33 32 31 31 31 31 32 33 34 35 36 38 39 41
25 26 27 29 31 33 34 34 34 34 35 37 38 40 42 45 48 50 51 51 49 46 43 41 39 37 36 34 33 32 31 30 30 31 32 32 33 34 35 35 36 37 39
28 29 31 33 34 35 36 37 36 36 38 39 40 42 45 47 49 51 52 51 48 45 42 39 38 36 34 33 32 31 30 29 29 30 30 31 31 32 33 33 34 35 38
31 33 34 35 37 38 39 40 40 40 40 41 43 46 48 49 51 52 51 50 47 43 40 38 36 35 33 32 31 30 29 28 29 29 29 29 29 29 31 32 33 35 37
34 35 37 38 40 41 42 43 43 44 43 43 45 47 49 51 52 52 51 49 46 42 39 37 35 34 33 31 30 29 28 27 27 27 27 27 28 28 28 29 30 32 35
36 38 39 40 42 44 46 47 47 46 46 46 48 50 52 52 51 51 50 48 45 41 38 36 34 33 32 31 30 29 28 28 27 27 26 26 26 27 26 27 29 30 32
39 40 41 42 45 48 50 51 50 49 48 48 50 51 52 52 51 50 48 46 43 40 38 36 33 32 31 31 30 29 28 28 27 26 25 25 25 25 25 26 27 29 30
42 42 44 45 47 50 51 52 54 53 51 51 52 52 53 52 51 49 47 44 41 39 37 35 33 32 31 30 29 29 28 27 26 25 24 24 24 23 24 24 25 25 26

GEFSMW_500_meanwind_048.txt.gz
Wind_Speed
11 10 8 7 6 5 4 4 5 6 8 10 10 11 12 13 14 15 16 17 17 17 18 18 18 18 18 18 19 20 21 21 21 21 22 23 23 24 24 25 25 26 27
8 8 6 4 2 1 2 4 5 6 8 9 10 12 13 14 15 16 16 17 17 17 17 17 17 17 17 17 18 18 19 20 20 21 21 23 24 24 24 25 26 27 28
3 3 2 2 0 1 3 4 6 7 9 10 11 13 14 15 15 16 16 17 17 17 17 17 17 16 16 17 17 18 19 19 20 20 21 22 24 24 24 25 26 27 28
4 3 3 1 1 2 5 6 8 9 10 12 13 15 16 16 17 17 17 18 18 18 18 17 17 17 17 18 18 19 20 20 21 21 21 22 23 24 25 25 26 27 27
5 3 2 1 3 5 7 8 10 11 12 14 15 17 17 18 18 19 19 19 19 18 19 19 19 19 20 20 21 21 21 22 22 23 23 24 25 26 26 27 27 28 28
3 2 3 4 6 7 9 10 11 12 14 15 17 18 19 20 21 22 22 22 21 20 20 21 22 22 22 23 24 24 24 24 25 26 26 26 27 28 29 29 30 31 31
4 5 6 7 8 9 11 12 12 14 15 17 18 19 20 21 22 23 23 23 23 23 22 23 23 24 25 26 27 27 27 28 28 29 30 30 30 31 31 32 32 33 33
6 7 8 9 10 11 12 13 13 14 16 17 19 20 21 21 22 22 23 23 23 24 24 24 25 26 27 28 28 29 30 31 32 33 33 34 34 34 34 35 35 35 36
9 9 10 10 11 12 13 13 14 15 16 18 19 20 21 22 22 23 23 23 24 24 25 25 26 28 29 30 31 32 33 35 35 36 37 37 38 38 38 38 38 38 38
11 12 12 12 13 13 14 14 15 16 17 18 19 20 21 22 22 23 23 24 24 25 26 27 28 30 31 32 34 35 37 38 38 39 39 40 40 40 41 41 41 41 40
14 14 14 15 15 15 15 15 16 17 18 19 21 22 22 22 22 23 24 24 25 26 28 30 31 33 34 35 36 37 38 39 40 41 41 41 41 41 42 42 42 42 42
17 18 17 16 17 17 16 16 17 18 19 20 22 23 24 24 24 24 25 26 27 28 31 33 34 36 36 37 38 39 40 40 40 40 41 41 41 41 42 42 43 43 43
19 20 19 18 18 18 18 18 18 19 20 22 23 25 25 25 26 26 27 28 30 31 33 35 37 38 39 39 40 40 41 41 40 40 39 39 39 40 40 41 41 41 42
20 20 20 20 20 20 20 20 20 21 22 24 25 27 27 28 28 28 29 30 31 33 35 37 39 40 41 41 41 42 41 41 40 39 38 37 37 37 38 38 38 39 40
21 20 20 20 21 21 21 22 22 23 24 26 27 28 29 30 30 30 32 33 33 35 37 39 41 42 42 42 42 42 41 40 38 37 36 36 35 35 36 36 36 37 37
22 22 21 21 21 22 22 23 24 25 26 28 29 30 31 32 32 33 34 34 35 37 40 41 42 43 43 42 42 41 40 39 37 36 35 34 34 33 33 34 34 35 35
22 22 22 22 22 23 23 24 25 26 28 29 30 31 32 33 35 36 37 38 39 40 42 43 43 43 43 43 42 41 39 37 36 35 34 33 32 32 31 32 33 33 34
23 24 24 24 24 24 25 26 27 29 30 31 32 33 34 36 38 40 41 41 41 43 44 45 45 44 44 44 42 40 37 36 35 34 33 32 31 31 30 30 31 32 33
25 26 27 27 27 27 28 28 30 31 32 33 34 35 36 38 41 43 44 43 44 45 45 45 46 45 44 43 41 39 36 35 34 33 33 31 30 30 30 30 31 31 32
30 29 29 29 30 30 30 31 32 34 35 37 38 38 40 42 45 46 46 46 46 47 47 47 46 45 44 43 41 39 37 35 34 33 32 31 30 30 31 31 31 31 32
32 32 32 31 32 33 33 34 35 37 39 40 41 43 45 46 47 48 48 49 49 49 49 47 46 45 44 42 40 38 37 35 33 32 32 31 31 31 32 32 32 32 32
33 34 34 34 34 35 36 37 38 40 42 43 44 46 48 49 49 50 49 50 51 50 50 49 47 46 44 41 39 39 37 35 33 32 32 31 31 32 32 32 32 32 32
35 35 36 37 38 39 39 40 42 43 45 46 48 50 51 51 52 52 52 53 54 53 52 50 48 46 44 42 40 38 37 35 33 32 32 32 32 31 31 32 32 32 32
37 37 38 38 40 41 42 43 44 46 47 49 50 52 53 54 53 53 54 54 54 54 53 51 48 46 44 42 40 38 37 36 34 32 32 32 32 32 31 31 30 30 30
39 40 40 41 43 44 45 46 47 49 50 51 52 53 54 54 55 55 55 56 56 56 54 51 49 46 43 42 40 39 37 36 34 32 32 32 32 32 31 30 29 28 28
41 42 42 43 45 46 47 49 50 51 52 53 55 56 56 56 57 57 57 57 57 55 53 50 48 45 43 40 39 38 36 35 34 32 32 31 31 30 29 28 27 27 26

GEFSMW_500_meanwind_054.txt.gz
Wind_Speed
7 8 7 6 5 4 3 2 2 1 1 2 2 2 3 4 5 6 7 8 9 9 10 9 9 9 9 10 10 11 11 12 12 13 15 16 16 17 18 19 20 21 21
7 8 7 6 5 4 3 2 2 1 0 1 2 2 3 4 6 7 8 9 10 11 11 11 10 10 10 10 11 11 11 11 12 13 14 15 16 17 18 19 20 21 22
9 10 8 7 6 5 4 3 2 1 0 1 2 3 4 5 6 8 9 10 11 11 11 12 12 12 12 12 12 13 13 13 13 14 14 16 16 17 18 19 20 21 22
9 9 8 8 6 4 3 2 1 1 1 2 3 4 5 6 7 8 10 11 12 13 13 13 13 14 14 14 15 15 16 16 16 15 16 16 17 17 18 19 20 21 22
8 8 8 6 5 3 3 2 1 1 2 3 4 4 6 7 8 9 11 12 13 14 14 15 16 16 16 16 16 17 18 18 19 18 18 18 19 19 20 20 21 22 22
8 7 6 5 3 2 2 2 2 2 3 3 4 5 7 8 9 11 12 12 13 14 15 16 17 17 17 18 18 18 19 20 20 21 21 22 22 22 22 23 24 24 24
5 5 4 3 2 2 3 3 3 3 4 4 5 7 8 9 11 12 12 13 14 15 16 16 17 17 18 19 19 20 21 21 22 23 24 25 26 26 26 27 27 27 28
2 2 1 2 2 3 4 4 4 4 5 5 7 8 9 11 12 13 13 14 14 15 16 16 17 18 19 21 22 23 24 24 25 25 26 26 27 28 29 30 30 31 32
2 2 2 2 3 4 4 5 5 6 6 7 9 10 11 12 13 14 14 15 15 16 17 17 18 20 21 22 23 25 26 26 27 28 28 29 29 30 31 31 32 32 33
2 3 4 4 5 5 6 6 7 7 8 9 11 12 13 14 15 16 17 17 18 19 20 20 21 22 23 24 26 28 29 29 30 30 31 31 32 32 33 33 34 34 35
2 4 4 5 6 6 7 7 8 9 10 11 13 14 15 16 18 18 19 20 21 22 23 24 25 25 26 27 29 30 32 32 33 33 33 33 34 34 35 35 35 36 36
4 4 4 5 6 7 8 9 10 11 13 14 16 17 18 19 20 21 21 22 23 24 25 25 26 28 28 29 30 31 34 35 35 34 34 35 35 36 36 35 35 35 36
8 7 7 7 7 8 10 11 13 14 15 17 19 20 21 22 22 23 23 24 24 25 26 27 28 29 30 32 33 34 36 37 36 36 36 36 36 36 36 35 35 35 35
10 10 10 10 10 11 12 13 15 17 18 20 21 22 23 24 25 25 25 26 27 28 29 30 31 32 33 34 35 36 37 37 37 37 38 38 37 37 36 35 35 35 34
11 11 11 12 13 14 15 16 17 19 20 22 24 25 26 27 27 28 28 28 29 30 31 31 32 34 35 36 36 37 38 38 39 39 39 39 39 38 37 36 35 35 34
13 12 12 13 15 16 17 19 20 21 23 24 26 27 28 29 30 30 30 31 31 32 33 34 34 36 36 36 37 37 37 38 39 39 40 39 39 38 37 36 36 35 34
15 14 14 16 17 19 20 21 23 24 26 27 28 30 31 31 32 32 32 33 34 35 35 36 37 37 38 38 38 38 37 38 39 40 40 40 40 39 37 36 35 35 34
18 18 19 20 21 22 24 25 26 27 28 30 31 32 33 33 34 34 35 35 36 37 38 39 39 40 40 40 39 39 40 40 40 41 41 40 40 39 38 36 35 34 34
23 24 25 25 26 27 28 28 29 30 31 33 34 35 35 36 36 37 37 38 39 40 41 41 42 41 41 41 41 41 42 42 42 41 41 40 39 39 38 36 35 34 34
26 27 28 29 30 31 31 31 32 32 33 35 36 37 38 38 39 39 40 41 42 43 43 44 44 44 44 44 45 44 44 43 43 42 42 41 40 38 37 36 35 34 34
28 30 31 32 32 33 34 34 35 34 35 37 38 39 40 41 41 42 43 44 45 46 46 46 46 47 46 47 47 47 46 45 44 43 43 42 40 38 37 35 35 35 34
31 32 33 34 35 35 36 37 37 38 39 39 40 41 43 44 44 46 47 47 48 48 48 48 48 48 49 49 49 49 48 47 45 44 43 41 40 38 37 36 36 35 34
32 33 34 36 37 38 38 39 40 41 42 42 43 44 46 47 48 49 50 50 50 50 50 51 51 51 51 51 51 50 49 48 46 44 42 41 39 38 37 36 35 34 34
33 34 36 37 38 39 40 41 42 43 44 45 46 47 49 49 50 51 52 53 53 53 53 54 54 54 53 53 52 51 50 48 46 44 42 40 39 38 37 36 35 34 34
34 36 37 38 39 40 41 42 43 44 46 47 49 50 51 52 53 54 55 55 56 57 57 57 57 56 54 53 52 51 50 49 46 43 41 39 38 37 35 35 34 34 33
36 37 38 39 40 41 42 43 45 46 48 49 51 52 54 55 56 57 58 59 59 59 60 59 59 58 56 53 52 51 49 47 46 43 40 39 38 36 35 34 33 32 31

GEFSMW_500_meanwind_060.txt.gz
Wind_Speed
12 13 16 17 15 14 12 10 8 7 6 4 3 3 3 3 3 4 4 5 5 6 6 6 7 7 7 7 8 8 9 9 10 10 11 11 12 12 13 13 14 15 16
10 13 15 15 14 13 11 9 8 7 6 4 3 2 3 3 4 4 4 5 5 6 6 7 7 8 8 8 9 9 10 10 10 11 11 11 12 12 13 13 14 15 16
10 12 13 15 14 12 11 10 8 7 6 4 3 3 3 3 3 4 4 5 6 6 7 7 8 9 9 8 8 9 9 10 11 12 13 13 13 13 13 14 15 15 16
9 11 14 14 13 12 10 9 8 6 5 4 4 4 3 3 3 3 4 5 5 6 7 7 8 8 9 9 9 9 9 10 11 13 14 14 15 15 15 15 16 17 17
8 10 13 12 12 11 9 8 7 6 5 5 5 4 4 4 4 4 4 5 6 6 7 7 8 8 8 9 10 10 11 11 12 13 14 15 16 17 17 18 18 19 20
6 8 10 10 10 9 8 7 6 6 6 6 5 5 5 4 4 4 5 5 6 6 7 7 8 8 9 10 11 12 13 13 14 15 16 16 17 18 19 20 20 21 22
5 6 7 8 8 7 7 7 7 7 7 7 6 6 5 5 5 5 5 6 7 7 8 9 10 11 11 12 13 13 15 15 16 17 17 18 18 19 20 21 22 22 23
4 5 6 7 7 7 7 8 8 8 8 8 7 6 6 6 6 7 7 8 9 10 11 12 13 14 15 15 16 17 18 18 19 19 20 20 20 20 21 22 23 24 24
5 6 6 7 7 8 8 9 9 9 9 9 8 8 8 8 8 9 9 10 11 13 14 15 16 17 17 18 18 19 20 20 21 22 23 23 23 23 23 23 24 24 25
7 8 8 9 9 9 10 10 11 11 11 11 11 10 11 10 10 11 12 13 14 15 16 17 18 19 19 20 20 21 21 22 23 24 25 25 26 26 26 25 25 26 26
10 10 11 11 11 11 11 12 12 12 13 13 13 13 13 13 13 13 15 16 17 18 19 20 21 22 22 23 23 24 24 25 25 26 27 27 28 28 27 28 28 28 28
10 11 12 13 13 13 14 14 14 14 15 15 16 16 16 16 16 16 17 19 20 21 22 23 24 24 25 25 26 26 27 27 28 29 29 30 30 30 30 30 29 29 29
11 12 13 14 15 15 15 15 16 16 17 17 18 18 19 19 19 19 21 22 23 24 25 26 26 27 27 28 28 29 29 30 30 30 31 32 32 32 32 32 31 31 31
12 13 13 14 15 16 16 16 17 18 19 19 19 20 21 21 22 23 24 25 26 27 28 29 29 30 30 31 31 31 31 31 32 33 33 34 33 34 34 33 33 33 33
14 14 14 14 15 16 16 17 17 18 19 20 21 22 23 23 24 25 27 28 29 29 31 32 32 33 33 33 33 34 34 34 35 36 36 35 35 36 35 35 35 35 35
16 16 15 15 16 16 16 17 18 20 20 21 23 24 25 26 27 28 29 30 31 32 33 34 35 35 35 36 36 36 36 37 37 38 38 38 38 38 37 37 37 37 37
19 19 19 18 18 18 18 20 21 23 24 25 26 27 28 29 30 31 32 33 34 35 36 36 37 37 38 39 39 39 39 39 39 40 40 40 39 39 39 39 39 39 39
20 20 20 20 20 21 22 23 24 25 26 28 28 29 31 32 34 34 35 36 37 38 38 39 40 41 40 42 43 43 42 42 42 42 42 42 41 42 42 41 41 41 41
23 22 22 22 22 23 24 26 27 29 30 31 31 32 34 35 37 38 39 40 41 41 42 43 44 44 44 45 46 47 46 45 45 45 44 44 44 44 44 43 42 42 43
24 23 24 24 25 26 27 28 30 31 32 34 35 35 37 38 40 41 43 44 44 45 46 47 48 49 48 48 49 49 49 48 48 47 47 47 47 46 47 46 44 43 44
22 23 25 25 27 28 30 31 32 34 35 36 37 38 40 41 43 45 46 47 49 50 50 51 52 52 52 52 52 52 53 52 52 51 50 50 50 49 49 48 47 45 45
22 24 26 27 29 30 32 33 35 36 38 39 41 42 43 45 46 48 49 50 52 53 53 54 54 55 55 56 56 56 56 56 56 54 53 53 53 52 51 50 49 48 46
24 25 27 29 30 32 33 35 37 38 40 41 43 44 45 47 48 50 51 53 54 55 56 57 58 58 58 59 59 59 59 60 60 58 57 57 56 55 53 52 51 49 47
26 28 29 31 32 34 36 37 39 40 42 43 45 46 47 49 51 53 54 56 57 59 60 61 62 62 62 62 63 63 63 63 63 62 61 60 59 57 55 53 51 49 47
29 30 32 33 34 36 37 39 41 42 44 46 47 49 50 52 54 55 57 59 61 63 64 65 66 66 66 66 66 66 66 66 66 65 64 61 60 58 55 53 51 50 47
30 32 33 35 36 38 40 42 44 45 47 48 50 52 54 55 57 59 61 62 64 66 67 69 69 69 70 69 69 69 68 67 67 66 64 61 58 56 54 52 51 49 48

GEFSMW_500_meanwind_066.txt.gz
Wind_Speed
10 13 16 18 21 21 21 19 18 16 14 12 10 8 6 5 4 3 2 2 1 1 1 2 2 2 2 3 3 3 3 4 4 4 5 5 6 7 8 10 11 12 13
7 11 14 17 18 19 19 18 17 15 13 12 9 7 6 5 4 3 3 2 2 1 0 1 2 2 2 2 3 3 3 3 3 4 4 5 6 7 8 9 10 11 12
5 9 12 15 16 17 17 17 16 14 13 11 9 8 6 5 4 4 3 3 2 1 0 0 1 1 2 3 3 3 3 4 4 5 5 6 7 8 8 9 11 12 12
4 7 10 12 15 16 17 16 15 13 11 10 9 7 6 5 5 4 4 3 2 2 1 1 0 0 1 2 3 4 4 5 6 6 7 7 8 9 10 11 12 13 13
3 6 9 11 13 15 15 14 12 11 10 9 8 7 6 5 5 5 4 4 3 3 2 2 2 2 2 3 4 5 6 7 8 8 9 9 10 11 12 13 14 14 15
4 5 8 10 11 12 12 12 11 10 9 9 8 7 6 6 6 6 5 5 5 4 4 4 4 4 5 6 7 7 8 9 10 11 11 12 13 14 15 15 15 15 16
3 4 6 9 11 11 11 10 10 9 9 9 8 7 7 7 7 7 6 6 7 7 7 7 7 8 9 9 10 10 11 11 12 13 13 14 15 16 16 16 17 18 18
1 2 4 7 8 9 9 9 9 9 9 9 9 9 9 9 9 9 8 8 9 9 10 11 11 11 11 12 13 13 14 14 15 15 15 16 17 18 18 19 20 20 21
1 2 4 5 7 8 9 9 9 9 9 10 10 10 11 11 11 11 11 11 12 13 13 14 14 14 15 16 16 16 17 17 18 18 18 19 19 19 20 21 21 22 23
3 4 5 6 7 8 9 10 10 11 11 12 12 12 13 14 14 14 14 14 15 16 17 17 18 18 18 19 19 20 20 20 20 21 21 21 22 22 22 23 24 24 25
5 6 6 7 8 9 10 12 13 13 13 13 14 15 16 16 17 17 18 19 19 20 20 21 22 22 22 22 22 23 23 23 23 23 23 23 23 24 24 24 25 25 26
7 7 9 9 10 11 12 13 14 14 15 16 16 17 18 19 20 21 21 22 23 24 25 25 25 26 26 26 25 25 25 26 26 26 25 25 25 25 25 26 26 26 27
9 9 10 11 11 12 13 14 15 16 17 17 18 19 21 22 22 23 24 25 26 27 28 28 28 28 28 28 28 28 28 28 28 28 28 28 27 28 28 28 28 28 29
11 11 11 12 13 14 14 16 17 18 19 19 20 22 23 24 25 26 27 28 28 29 30 31 31 31 30 30 30 30 30 30 30 30 30 30 30 30 31 31 31 31 31
14 14 14 15 16 16 17 18 19 20 20 21 22 24 25 26 27 28 29 29 30 31 32 32 33 33 32 32 32 33 33 32 32 32 32 33 33 33 34 34 34 34 33
18 18 19 19 19 20 20 20 21 22 22 23 24 25 26 27 28 29 30 31 32 33 34 34 34 35 35 35 35 36 35 35 35 35 35 36 36 37 37 37 38 37 37
23 23 23 23 24 23 23 23 24 24 25 25 26 27 27 29 30 31 32 34 35 36 36 37 38 38 38 39 39 40 40 39 39 39 39 40 40 40 41 41 41 41 40
25 26 27 27 27 27 27 27 28 28 28 28 29 30 30 31 32 34 35 36 38 39 39 40 41 42 42 43 44 44 45 44 44 44 44 44 44 44 44 45 44 44 43
27 29 29 30 31 32 32 32 32 32 32 32 32 33 34 35 37 38 39 41 41 42 43 43 45 45 45 47 47 48 49 49 48 48 48 48 48 48 48 49 48 47 46
27 30 32 33 33 34 35 36 36 35 35 35 35 36 37 38 40 41 43 44 45 46 47 48 48 49 50 51 51 52 53 53 53 53 53 52 52 52 52 52 51 51 50
27 29 31 32 33 34 35 35 36 36 36 37 38 39 40 42 43 44 45 46 48 49 50 51 52 53 54 55 55 56 57 58 57 57 57 57 56 56 56 56 56 55 54
27 27 28 30 31 32 32 33 34 35 36 37 39 41 42 44 45 46 48 49 50 51 53 54 55 56 57 58 59 60 61 62 62 62 62 62 62 61 61 61 60 59 59
27 27 27 29 29 30 31 32 33 35 37 38 40 42 44 45 46 48 49 51 52 54 55 57 58 60 61 63 64 64 65 66 67 67 67 67 67 67 66 65 64 64 63
28 29 29 29 30 30 32 33 35 36 38 39 41 43 44 46 48 49 51 53 55 57 59 60 62 63 65 66 67 68 69 70 71 71 71 71 71 71 70 69 68 67 66
29 29 29 30 31 32 34 35 36 38 39 41 43 44 46 48 50 52 55 57 59 61 62 64 65 67 68 69 70 71 72 72 73 73 73 72 72 72 71 71 70 69 68
29 30 30 32 33 34 35 36 38 40 41 43 45 47 49 52 54 56 58 60 62 64 65 67 68 70 71 72 72 72 73 73 73 73 72 72 72 71 71 70 69 68 67

GEFSMW_500_meanwind_072.txt.gz
Wind_Speed
10 8 11 16 18 19 20 19 17 16 15 14 13 11 10 9 8 6 6 4 3 2 1 0 2 2 2 2 3 4 4 4 4 4 4 3 4 4 4 5 5 6 7
8 5 8 13 16 17 17 17 17 17 15 14 11 10 10 9 8 6 5 4 4 3 2 1 1 2 3 3 3 4 4 4 4 4 5 5 4 4 5 6 6 7 8
9 5 5 9 14 15 16 15 14 14 14 13 11 10 9 8 7 6 6 5 4 3 3 2 1 1 1 2 2 3 3 4 4 5 5 5 5 6 6 7 8 8 9
9 4 3 6 10 11 13 13 14 14 14 13 11 11 10 8 7 7 6 6 5 5 4 3 2 2 1 0 2 2 3 3 4 5 6 6 6 7 7 9 9 10 11
8 5 2 5 8 10 11 12 14 13 12 11 11 11 10 9 8 8 7 7 6 6 5 5 4 3 3 3 3 4 4 5 6 7 8 8 9 9 10 10 11 11 12
8 6 4 4 6 8 10 11 12 12 12 12 11 11 10 10 9 8 8 7 7 7 7 7 6 6 6 6 6 7 7 8 8 9 10 11 11 12 13 14 13 13 13
7 6 5 4 4 6 8 11 12 11 10 10 11 11 10 10 9 9 9 9 9 9 9 8 8 8 8 9 9 10 10 11 12 13 13 14 15 16 16 16 16 16 15
6 5 4 3 1 4 7 9 10 10 10 10 10 10 10 10 10 10 10 11 11 11 11 11 11 11 11 12 13 13 14 15 16 16 17 17 18 18 19 19 19 19 19
5 4 2 1 1 4 6 7 8 10 10 10 10 10 11 11 12 12 12 12 13 13 13 13 13 14 14 15 16 17 18 19 19 20 20 21 21 22 22 22 23 23 23
6 5 4 3 2 3 6 8 9 9 9 10 11 11 12 12 13 14 14 14 15 16 16 16 17 17 18 18 19 20 21 22 22 23 23 24 24 25 25 26 26 26 26
7 6 6 5 4 5 7 8 9 10 10 11 11 12 13 14 15 16 16 17 17 18 18 19 19 20 20 21 22 22 23 24 25 25 26 27 27 27 28 28 28 28 28
9 8 8 7 7 8 8 9 10 11 11 12 13 14 15 16 17 18 18 19 20 21 21 22 22 22 23 23 24 25 25 26 27 28 28 29 29 30 30 30 30 30 30
11 10 10 9 9 10 10 10 11 12 13 14 15 16 17 18 19 19 20 21 22 23 24 24 25 25 25 26 27 28 28 29 29 30 30 30 31 31 32 32 32 33 33
13 13 12 12 12 12 12 13 14 15 16 18 18 18 19 20 20 21 22 23 24 25 26 26 27 27 28 29 29 30 30 31 31 32 32 32 33 34 34 34 35 36 36
16 16 16 16 15 15 15 16 17 17 18 20 21 21 22 22 22 24 25 26 26 27 28 28 29 29 30 30 31 32 33 33 33 34 34 35 36 37 37 38 38 38 39
19 19 19 20 20 20 20 21 21 22 22 23 23 24 24 25 26 27 28 29 28 29 30 30 32 32 32 32 33 34 35 36 36 37 38 39 39 40 40 41 41 42 42
19 20 21 23 23 24 25 25 25 26 27 28 28 28 28 29 30 30 31 31 31 31 32 34 34 34 34 35 36 38 39 39 39 40 41 42 43 44 44 44 44 45 46
22 22 22 23 24 25 27 28 29 30 32 32 32 32 32 33 34 34 35 34 34 34 35 35 36 37 37 38 39 41 42 43 43 44 45 46 46 47 48 48 47 47 48
23 23 23 24 25 26 28 30 32 34 35 35 36 37 36 37 37 38 38 39 39 38 38 39 40 41 41 42 42 43 44 46 47 48 49 49 50 51 52 53 52 52 52
23 24 25 26 26 27 29 30 33 34 35 37 38 38 38 38 39 39 39 40 40 40 40 42 43 43 43 44 45 47 48 49 50 51 52 54 55 56 56 57 57 57 57
25 25 26 27 27 28 30 31 33 35 36 37 38 38 38 38 37 36 38 39 40 41 42 43 44 45 46 47 49 50 52 53 54 56 57 59 60 61 62 62 63 63 63
26 27 27 28 28 29 30 32 34 35 36 36 36 36 36 36 36 37 37 38 40 41 43 44 46 47 49 51 53 54 56 58 60 61 63 64 65 66 67 67 68 68 69
27 28 29 30 30 31 32 32 33 32 33 33 33 33 34 35 36 36 37 39 41 43 45 47 49 51 54 56 57 59 61 63 65 66 68 69 70 71 71 71 72 73 73
29 30 30 31 32 33 32 32 32 32 32 33 33 34 35 36 37 39 41 43 45 47 49 51 53 55 58 60 62 64 66 68 69 71 71 72 73 74 74 74 73 73 73
29 30 31 32 32 33 33 33 33 33 33 34 35 36 37 38 40 42 44 46 48 50 53 55 58 60 62 64 67 69 70 72 73 73 73 73 72 72 71 71 71 71 70
30 31 31 32 32 32 32 33 33 34 35 36 37 39 41 43 44 46 48 50 53 55 57 59 62 64 66 68 69 69 70 70 70 70 69 69 68 67 66 65 65 64 64

GEFSMW_500_meanwind_078.txt.gz
Wind_Speed
12 10 4 7 9 14 15 19 19 19 18 17 17 15 14 12 11 10 9 8 7 6 5 4 4 4 4 5 5 5 5 4 4 4 4 3 3 3 2 1 1 1 1
11 9 3 3 7 12 14 17 18 18 17 17 16 15 13 12 11 11 10 9 8 7 6 6 5 5 5 5 5 5 5 4 4 3 3 3 3 3 2 2 2 2 2
10 8 4 3 6 9 11 14 18 16 16 16 15 14 13 12 11 11 11 10 9 8 8 7 7 6 6 5 5 4 4 4 3 3 3 2 2 2 2 2 2 3 3
10 9 6 3 5 8 11 13 16 17 17 16 15 14 14 13 12 12 11 11 10 9 9 8 8 7 6 5 4 3 3 3 2 2 1 1 0 1 2 2 3 4 4
9 8 7 5 5 8 11 12 14 17 17 16 15 14 14 13 13 12 12 11 11 11 11 10 9 8 7 6 5 4 3 3 3 2 2 2 3 4 4 5 5 5 5
9 7 6 6 6 7 9 11 14 15 16 15 15 14 14 14 13 13 13 12 12 12 12 12 11 10 9 8 7 6 6 6 5 5 5 6 6 7 8 8 8 8 7
8 7 6 5 5 6 8 10 11 13 14 14 15 14 15 14 14 14 13 14 14 14 13 13 12 12 12 11 11 10 9 9 9 9 9 9 10 10 11 11 11 11 11
7 6 5 5 5 6 7 8 9 11 13 15 15 15 15 15 15 15 15 15 15 15 14 14 14 14 14 14 13 13 13 13 13 13 13 14 14 14 14 14 14 14 14
5 4 4 3 4 4 5 7 9 10 12 13 15 15 15 15 15 15 16 16 16 16 16 16 16 16 16 16 16 16 16 17 17 17 18 18 17 17 17 17 17 17 17
4 3 3 2 1 2 3 6 9 11 11 12 13 14 14 15 15 16 17 17 17 18 18 18 18 18 18 19 19 20 20 20 21 21 21 21 21 21 21 21 21 21 20
3 3 4 2 1 2 3 5 7 9 11 12 13 14 14 15 16 17 18 18 19 20 20 20 21 21 21 22 22 23 23 23 24 24 25 24 24 24 24 24 24 24 24
4 4 5 4 4 4 4 6 8 9 10 13 14 14 15 16 17 18 19 19 21 22 22 23 23 24 24 25 25 26 26 26 27 27 28 28 27 27 27 27 27 27 27
4 5 5 6 6 6 5 7 8 10 11 12 13 14 15 16 17 18 20 21 22 23 24 25 26 27 27 28 28 29 29 29 29 29 30 30 30 30 30 30 30 30 30
7 6 6 6 7 7 7 8 10 11 11 12 13 14 15 16 18 19 21 22 24 24 26 26 28 29 30 31 31 31 32 32 32 32 31 31 32 32 33 33 33 33 33
7 7 7 7 8 8 8 9 11 12 12 13 14 16 17 18 19 21 23 24 26 26 27 28 29 30 32 33 33 33 33 34 34 34 34 34 35 35 35 36 36 36 36
8 8 9 9 10 10 10 12 14 15 15 15 16 18 18 18 19 22 23 25 27 29 29 30 31 32 34 34 35 35 35 36 37 37 37 38 38 38 38 38 38 39 39
10 10 11 11 11 12 13 14 15 16 16 18 19 20 21 21 22 23 25 27 28 30 31 31 33 33 34 35 35 36 37 38 38 39 40 40 40 41 41 41 42 42 43
12 12 12 12 13 14 15 16 17 19 20 21 22 23 23 23 25 27 28 30 31 32 34 35 36 36 36 37 36 37 38 39 40 41 42 42 43 43 44 44 45 46 47
13 13 13 14 15 16 17 18 19 21 22 22 23 24 25 27 27 29 30 31 32 33 34 35 35 35 37 38 38 39 40 40 41 42 42 43 44 45 46 47 49 49 50
15 15 16 16 17 18 19 20 21 23 24 25 26 27 28 29 30 31 32 33 33 33 35 35 35 35 37 38 39 39 40 41 42 43 44 46 47 49 50 51 52 54 55
16 17 17 18 19 20 21 22 23 24 26 27 28 29 30 31 32 32 32 33 33 34 34 35 35 36 37 39 40 42 43 44 45 46 48 50 52 53 55 57 58 60 61
17 18 19 20 21 22 23 24 25 26 28 29 30 31 32 32 32 32 32 33 34 34 35 36 37 38 39 41 43 44 46 47 49 51 52 54 56 58 60 62 64 65 67
18 19 20 21 23 24 25 26 27 28 30 31 31 32 32 33 33 33 34 35 36 37 37 38 39 41 42 44 46 48 50 52 54 56 58 59 61 63 64 66 68 69 70
19 21 22 23 24 25 26 27 28 29 30 31 32 33 33 34 34 35 36 37 38 39 40 41 43 45 47 49 50 52 54 57 59 60 62 64 65 66 67 68 68 69 69
20 22 23 24 25 26 27 28 29 30 31 32 33 33 34 35 36 37 38 39 40 42 44 45 47 49 51 53 55 56 58 60 62 63 64 65 65 65 65 65 66 66 66
21 22 23 24 25 27 28 29 30 31 32 33 33 34 35 36 38 39 40 42 43 45 47 48 50 52 54 55 57 58 59 60 60 60 60 60 60 60 60 60 59 59 59

GEFSMW_500_meanwind_084.txt.gz
Wind_Speed
15 12 8 7 10 15 19 21 23 25 25 24 22 20 19 17 15 13 12 11 10 8 7 6 5 4 3 2 2 2 3 3 3 3 4 4 4 4 4 4 3 3 2
13 10 6 4 9 13 18 20 22 23 23 23 22 21 20 17 15 14 13 12 10 9 9 8 7 5 4 3 3 3 3 4 4 3 3 3 3 3 3 3 3 2 1
12 10 5 2 8 13 15 18 21 21 22 23 22 21 19 17 16 15 13 12 11 10 10 9 8 7 6 5 4 4 4 4 4 3 3 2 2 2 2 2 1 1 2
11 9 5 2 6 11 13 17 19 21 22 22 21 20 19 17 17 15 14 13 12 12 11 10 9 8 7 6 5 4 4 4 4 3 3 3 3 2 2 2 2 3 3
10 8 5 2 3 8 11 15 18 20 21 21 21 20 18 17 16 15 14 13 13 13 12 11 10 10 9 8 7 6 5 5 5 4 4 4 4 4 4 4 4 5 6
9 7 5 3 2 6 10 13 16 18 20 20 19 18 17 16 16 15 14 13 13 13 13 12 12 11 11 11 10 9 9 8 8 8 7 7 8 8 8 8 8 8 8
8 6 4 2 2 4 8 11 14 17 18 18 18 17 17 16 15 14 14 13 14 14 14 14 13 13 13 13 13 13 12 12 12 12 12 12 12 12 12 12 12 12 12
8 6 3 1 2 3 6 9 13 15 16 17 18 17 17 16 15 15 14 14 14 15 15 15 15 15 15 16 16 16 16 16 16 16 16 16 16 16 16 16 16 16 17
8 5 3 1 1 2 4 7 11 12 14 15 16 17 16 16 16 15 15 15 15 16 16 16 16 17 17 18 18 19 19 20 20 20 20 20 20 20 20 21 21 21 21
8 5 3 2 2 2 3 5 7 9 11 15 16 16 16 17 16 16 16 16 16 17 17 17 18 19 19 20 21 22 22 23 23 23 24 24 24 25 25 25 26 26 26
8 6 5 4 4 3 4 5 7 9 10 13 15 16 17 17 16 17 17 18 18 18 18 19 19 20 21 22 24 25 25 25 26 27 27 28 28 28 29 30 30 30 30
9 7 6 5 5 5 6 6 7 8 10 11 13 15 17 18 18 19 19 19 19 19 20 20 21 22 23 24 26 27 28 29 29 30 31 32 32 33 33 33 34 34 33
10 9 7 7 6 7 8 8 9 9 10 11 13 15 17 17 18 19 19 18 19 20 22 22 24 25 26 26 27 28 29 31 32 33 34 36 36 36 36 37 37 37 37
11 10 10 9 9 8 9 9 10 10 11 13 14 16 17 18 19 19 20 20 20 21 23 24 26 26 27 28 29 30 32 33 34 35 37 38 39 39 39 39 39 40 41
12 12 12 12 11 10 10 11 11 12 12 13 14 16 18 19 19 20 20 20 21 23 24 25 26 28 29 31 32 33 35 36 36 38 39 40 41 41 41 41 42 43 43
15 14 14 13 14 13 12 13 13 14 14 14 14 15 16 17 19 21 21 22 23 24 25 26 29 30 31 33 33 34 36 38 39 39 40 42 43 43 43 44 45 46 46
17 16 16 16 15 14 14 14 15 14 15 15 15 16 17 16 17 19 21 23 25 26 27 29 30 31 33 34 35 36 37 39 40 42 43 45 46 46 46 47 47 48 49
19 18 17 17 17 16 16 16 16 14 14 15 16 16 17 17 18 19 21 23 25 27 29 30 31 32 33 34 36 37 38 40 41 42 44 46 46 46 47 48 49 50 50
23 21 19 18 18 18 18 17 18 17 17 17 18 19 20 20 21 22 24 25 27 29 30 32 33 34 35 35 36 37 38 40 41 42 44 46 47 47 48 49 50 50 51
25 24 23 21 20 20 19 19 19 19 19 20 21 22 23 24 24 26 27 29 30 32 33 33 34 35 35 36 37 38 39 41 42 43 44 45 46 47 49 50 51 52 53
27 25 25 24 23 22 22 21 21 21 22 23 23 24 25 26 28 29 30 31 32 33 34 35 35 35 36 37 38 39 41 42 44 45 46 47 48 50 51 52 54 55 56
28 26 26 25 24 23 23 23 23 23 24 25 25 27 27 28 29 30 31 32 33 34 35 36 36 37 39 40 41 42 43 45 46 48 49 51 52 53 55 56 58 59 60
28 26 25 25 24 24 23 24 24 24 25 27 27 28 29 30 31 32 33 34 34 35 36 37 38 39 41 42 43 45 46 47 49 50 52 53 55 56 57 58 60 61 62
26 25 26 25 24 24 24 24 25 26 27 28 29 30 31 32 33 34 35 35 36 37 39 40 41 42 43 45 46 47 48 50 51 52 53 55 56 56 58 59 60 61 61
26 25 25 24 24 24 24 25 26 27 28 29 30 32 33 34 35 36 37 38 39 40 41 42 44 45 46 48 49 51 52 53 54 55 56 57 57 58 59 59 60 60 60
22 21 23 23 23 23 25 26 27 28 29 31 32 33 34 35 36 38 39 40 42 43 44 45 47 49 50 52 53 54 55 56 57 58 58 58 59 59 58 58 57 57 56

GEFSMW_500_meanwind_090.txt.gz
Wind_Speed
12 11 10 9 8 10 13 19 21 24 25 25 25 23 21 20 18 16 14 12 11 9 7 5 4 4 4 3 3 3 3 3 2 2 2 2 1 1 1 2 3 3 3
12 12 11 9 8 9 13 16 20 23 25 25 24 23 20 19 18 16 15 13 12 10 8 7 6 5 5 4 4 4 4 3 3 3 2 1 1 1 1 1 2 2 3
12 12 11 7 6 8 12 16 19 21 23 23 23 22 20 19 18 17 15 14 12 10 9 8 8 7 6 6 5 5 5 4 4 4 3 2 1 2 2 2 3 4 4
13 11 9 5 5 7 11 14 17 20 22 23 22 21 20 20 18 17 16 15 13 11 11 10 9 8 8 7 7 6 6 5 5 4 4 4 4 4 3 4 4 4 5
13 11 9 5 3 6 10 13 15 18 20 21 21 21 20 20 18 17 17 16 14 12 12 11 11 10 10 9 9 8 8 7 6 6 6 6 6 6 6 6 6 7 7
12 11 10 7 3 4 8 11 13 16 18 18 19 19 20 19 19 18 17 16 14 13 13 13 12 12 11 11 11 10 10 10 9 9 9 9 9 9 9 10 10 10 10
11 9 8 6 3 2 6 10 12 15 16 17 19 19 19 18 18 17 16 15 15 14 14 14 13 14 14 14 14 13 13 13 13 13 13 12 13 13 13 13 14 14 14
11 9 7 6 3 1 4 7 10 12 14 16 17 19 18 18 17 17 16 16 15 15 15 15 15 15 15 16 16 16 16 16 16 16 16 16 16 17 17 17 18 18 18
10 9 7 5 2 1 3 4 7 9 12 15 17 17 17 17 17 17 17 16 16 16 16 16 17 17 17 17 18 19 19 19 19 20 20 20 20 21 21 21 22 22 23
11 9 8 5 3 3 3 4 5 7 10 13 14 15 16 17 17 18 18 18 17 18 18 18 18 18 19 19 20 21 21 22 22 23 23 24 24 24 25 25 26 26 27
10 9 7 6 4 4 3 3 4 7 9 10 13 14 15 16 17 18 19 19 18 19 19 20 20 20 21 22 22 23 23 24 25 25 25 26 27 27 28 29 30 30 31
10 9 7 6 4 4 4 4 5 6 7 8 11 12 14 16 17 19 20 20 20 20 20 21 21 21 22 24 24 25 25 26 26 27 27 28 29 30 31 32 32 33 34
11 9 7 6 6 5 5 5 5 6 7 8 10 12 14 16 17 19 21 21 22 21 21 22 22 23 23 24 25 25 25 27 27 28 29 30 31 33 34 35 35 36 37
12 10 8 8 7 7 7 7 7 8 8 9 10 12 14 16 17 18 20 20 20 21 21 22 22 23 23 24 25 26 27 28 29 30 32 33 34 36 37 37 38 39 40
14 12 11 9 9 9 9 9 9 10 11 11 12 13 14 15 17 19 19 20 20 21 21 22 22 23 24 25 26 28 29 31 32 33 35 36 38 39 40 41 42 42 42
16 15 14 13 12 11 11 11 11 12 13 14 14 15 15 16 17 18 19 20 20 21 22 23 24 25 26 27 28 30 31 33 35 36 37 38 40 41 43 44 44 45 45
19 18 17 16 15 14 13 14 14 15 16 16 16 16 17 16 15 16 18 19 21 22 23 24 26 28 29 30 31 33 35 36 37 39 40 41 41 42 44 44 45 46 46
23 22 20 19 18 17 17 17 17 17 17 17 17 18 18 18 18 18 19 19 21 23 25 26 28 30 31 33 34 36 37 38 39 41 42 43 43 44 45 46 47 48 49
27 25 24 22 21 20 20 19 18 19 19 18 19 19 19 20 21 21 21 21 23 25 27 29 30 32 34 36 37 38 39 41 41 42 43 44 45 45 46 48 48 49 50
30 29 27 26 24 23 22 22 21 20 20 20 21 22 22 22 22 23 24 25 27 28 30 31 33 35 36 38 39 40 41 42 43 43 44 45 46 47 49 50 50 51 52
32 31 30 29 27 26 26 26 25 24 23 23 23 23 24 24 25 26 27 29 30 31 33 34 36 37 38 39 40 41 42 43 44 45 46 47 48 49 50 51 52 53 54
33 32 31 30 29 29 28 28 27 27 27 26 26 26 27 28 28 29 30 31 32 33 35 36 37 38 40 41 42 43 44 45 46 48 49 50 51 53 53 54 55 55 56
33 32 31 31 31 31 31 30 30 29 29 28 29 29 29 29 30 31 32 32 34 35 36 38 39 40 41 42 43 44 46 48 49 51 52 53 55 56 56 57 58 58 59
33 32 31 31 31 32 32 32 31 30 30 30 30 29 29 30 31 32 33 34 35 36 38 39 41 42 43 44 46 48 49 51 53 54 55 56 57 58 59 59 60 60 60
32 32 31 30 31 32 31 31 30 29 29 29 30 30 29 30 31 32 33 35 36 38 40 41 43 44 46 48 50 52 53 54 56 57 58 58 59 59 59 59 59 59 58
31 30 30 29 29 28 28 28 27 27 27 27 28 29 30 31 32 33 34 36 38 40 41 44 46 48 50 52 53 55 56 57 58 58 58 58 58 57 57 56 56 55 54

GEFSMW_500_meanwind_096.txt.gz
Wind_Speed
18 15 14 13 11 9 10 11 13 14 15 15 16 18 18 17 16 15 13 12 11 10 9 7 6 5 5 4 3 2 1 1 1 1 2 3 4 4 4 3 2 2 2
18 15 14 12 10 9 9 10 11 13 14 16 16 18 19 17 16 15 14 13 12 10 10 8 7 6 5 4 3 2 2 1 1 1 1 2 2 3 3 3 3 2 2
18 16 14 12 10 8 8 10 9 10 13 15 16 17 18 17 15 15 14 14 13 12 11 10 8 7 7 5 4 3 3 3 2 1 0 0 1 2 2 2 2 2 3
18 16 14 12 10 7 7 9 9 10 12 14 16 17 17 17 16 15 14 14 14 14 13 11 10 9 8 7 6 5 5 4 4 3 3 3 3 3 3 4 4 4 4
18 16 14 12 10 7 7 7 8 10 11 12 15 16 17 17 16 15 15 15 15 14 13 12 11 10 10 9 8 8 7 6 6 6 6 6 6 6 6 6 6 7 7
18 16 13 12 10 6 5 5 7 9 10 11 13 15 17 17 16 16 16 16 15 15 15 14 12 12 11 11 10 10 10 9 9 9 9 10 10 10 10 10 10 10 10
17 15 13 12 9 6 4 3 5 7 9 11 13 14 16 17 17 16 16 16 16 16 15 14 14 13 13 13 13 13 12 12 12 12 13 13 14 14 14 14 14 14 14
15 14 13 12 9 6 4 3 5 7 9 10 12 14 15 16 17 17 16 16 17 16 16 16 15 15 15 15 15 15 15 15 16 16 16 17 17 18 19 19 19 20 20
15 15 13 12 10 6 4 3 4 6 7 8 10 13 14 16 17 17 17 17 17 17 16 16 17 17 17 16 16 17 17 18 18 19 20 20 21 22 22 23 23 23 24
15 14 13 11 9 6 4 3 3 4 6 7 8 11 13 16 17 17 18 18 17 16 16 17 17 18 18 18 18 19 19 20 21 21 22 23 24 25 25 25 26 27 27
15 14 13 11 9 6 4 4 4 5 6 8 9 11 12 13 15 16 17 17 17 17 18 18 19 19 20 21 21 21 21 22 23 23 24 25 26 27 27 28 28 28 29
16 14 13 11 10 7 5 4 4 5 7 8 9 9 11 12 13 14 15 17 18 18 19 21 20 21 21 22 22 22 23 23 24 25 26 27 28 28 29 29 30 31 32
17 15 13 11 10 8 7 6 5 5 6 8 9 10 11 12 13 15 16 17 18 19 20 20 21 21 22 22 23 23 23 24 24 25 26 27 28 29 30 31 32 33 34
19 18 15 13 11 10 8 7 7 7 7 7 9 10 10 12 13 15 15 16 18 19 20 21 21 22 23 23 24 24 24 24 24 25 26 27 28 29 31 32 33 34 36
21 18 17 16 13 12 10 9 8 8 9 9 9 10 11 12 13 14 15 16 18 20 21 21 21 22 22 23 23 23 24 24 25 26 27 28 29 31 33 35 36 37 39
23 21 21 19 16 15 13 11 10 10 10 11 11 11 12 13 14 15 16 17 18 18 19 20 20 20 21 22 23 24 25 27 28 28 30 30 31 33 35 36 38 39 40
26 26 24 21 19 17 16 14 13 13 13 13 13 13 14 15 16 17 17 17 17 17 18 19 20 21 22 22 24 25 27 29 30 32 33 34 34 36 38 40 41 42 43
31 29 27 25 22 21 20 18 17 16 16 16 16 16 17 18 18 19 19 18 18 18 18 19 20 22 23 25 27 29 30 32 34 35 36 38 39 40 42 43 43 45 46
33 31 29 28 25 24 22 21 20 20 19 19 19 19 19 19 20 20 21 21 21 21 22 23 24 25 27 29 30 32 33 34 36 37 38 39 40 42 44 45 46 47 49
34 31 31 30 28 27 25 24 23 23 22 22 22 21 21 21 21 22 23 24 25 26 26 27 28 29 30 31 32 34 36 37 39 40 41 42 43 45 47 48 50 51 52
34 33 32 32 31 30 29 27 27 26 25 24 24 24 24 24 24 25 25 26 28 29 30 31 32 32 33 34 35 37 38 40 42 43 43 44 46 47 49 51 53 54 56
34 34 34 34 33 32 31 30 30 29 27 27 26 27 27 27 27 28 28 30 31 32 33 33 33 33 33 35 37 38 40 41 43 45 46 48 50 51 53 54 56 58 59
35 34 34 35 34 34 34 33 31 30 30 30 31 30 29 30 30 30 31 32 33 33 33 33 34 34 35 37 39 40 41 43 45 48 50 52 54 55 57 59 60 62 63
33 33 34 34 34 34 34 33 32 32 32 32 33 32 32 32 31 32 32 32 33 33 34 35 36 37 38 40 41 42 44 46 49 51 54 56 57 59 60 61 62 62 62
32 32 32 33 33 33 33 33 33 33 34 33 34 33 33 32 31 31 32 32 33 33 34 36 37 39 40 41 43 45 47 50 53 55 56 58 59 60 60 60 60 59 59
30 31 32 33 33 33 33 34 33 32 32 33 32 31 29 28 29 30 31 32 33 34 36 37 39 41 43 45 47 50 52 54 55 56 57 58 58 58 58 58 57 56 55

GEFSMW_500_meanwind_102.txt.gz
Wind_Speed
18 17 16 13 12 9 5 5 6 8 10 11 14 15 16 18 17 17 16 15 13 12 10 8 7 6 6 5 4 4 4 4 4 4 4 4 3 3 3 3 3 3 3
17 17 15 13 11 8 5 4 5 6 8 10 13 14 16 18 18 18 17 15 14 13 11 9 8 8 7 7 6 6 5 5 4 4 4 4 4 4 3 3 3 3 3
15 15 14 13 11 8 5 5 4 6 7 8 10 13 16 18 18 17 17 16 15 14 12 11 10 9 9 8 8 7 7 6 5 5 4 3 3 2 2 2 2 1 1
14 13 13 12 11 8 4 3 4 6 7 9 10 13 16 17 18 18 17 16 16 15 14 12 12 11 10 10 9 8 8 7 7 6 5 4 3 2 1 1 1 2 2
12 12 12 12 10 8 5 3 4 5 7 9 11 14 15 17 18 18 17 17 16 16 15 13 13 13 12 11 11 10 9 9 8 7 6 5 5 5 4 4 4 5 5
11 12 12 11 10 7 3 2 3 4 6 9 11 14 15 16 18 18 17 17 17 16 15 14 14 14 14 13 12 11 11 10 10 10 9 9 8 8 8 7 7 8 8
10 11 12 11 10 7 3 2 2 4 6 8 11 13 15 16 18 19 18 18 18 17 17 16 15 15 15 14 14 13 13 13 12 13 12 12 11 11 11 11 11 11 12
9 11 12 11 10 7 4 2 2 4 6 8 10 12 14 16 17 18 18 18 18 18 17 17 16 16 16 16 15 15 15 15 15 15 15 15 14 14 14 15 15 15 15
9 10 11 10 9 7 5 3 3 4 7 8 10 11 14 16 16 17 17 18 18 18 18 18 17 17 18 18 17 16 16 17 17 17 17 17 17 17 18 18 19 19 19
9 10 9 10 10 8 6 4 3 4 6 8 9 10 12 15 16 16 17 18 18 17 18 19 18 18 19 20 19 18 18 18 18 18 19 19 20 20 21 21 21 21 21
11 10 9 9 10 9 6 4 4 4 6 7 8 10 12 12 13 15 17 18 18 18 19 18 19 19 19 19 20 20 21 21 21 20 21 22 23 23 23 23 24 24 24
12 11 10 10 10 9 8 5 5 5 6 6 8 10 11 12 12 13 15 16 17 17 17 18 19 19 19 19 20 21 21 21 22 22 23 23 24 24 25 25 26 26 26
11 11 11 11 11 10 9 7 5 5 6 7 8 8 10 11 12 13 14 15 16 16 16 17 19 20 20 21 21 22 22 23 23 23 24 24 25 25 26 26 27 27 28
12 13 14 13 12 11 10 9 7 7 7 7 7 9 10 11 12 13 14 13 14 16 16 17 18 19 20 20 22 23 24 25 25 25 25 25 25 26 26 27 28 28 29
16 16 16 15 14 13 12 10 9 8 7 7 8 8 10 11 13 13 13 13 13 15 16 17 18 19 20 21 22 23 23 24 25 25 26 26 27 27 28 29 30 30 31
20 19 20 19 17 14 12 10 10 9 8 8 9 9 10 11 11 12 12 13 14 15 16 17 18 19 19 20 21 22 23 24 25 26 27 27 28 29 31 31 32 34 35
24 23 22 20 17 16 14 12 11 11 11 10 11 11 11 11 12 13 14 14 15 15 16 17 18 18 19 20 20 22 24 24 26 27 28 29 31 32 32 34 36 37 39
28 27 24 22 19 18 17 16 15 15 14 13 12 12 13 13 14 15 16 17 16 17 18 18 18 19 19 20 21 23 24 26 27 28 30 32 34 35 36 37 39 40 41
30 28 27 25 22 20 19 18 18 18 17 16 16 16 16 16 16 17 18 18 19 20 20 21 21 22 22 23 24 26 27 28 30 31 33 35 36 37 38 40 41 43 44
30 29 27 24 23 22 21 21 20 20 20 19 18 18 17 17 18 18 19 20 21 22 22 23 24 25 26 27 28 30 31 33 34 35 36 37 38 39 40 42 44 45 47
31 30 28 25 25 24 24 23 24 23 22 22 21 21 20 19 20 20 21 22 23 24 25 26 27 28 29 30 31 32 33 35 36 37 38 39 40 41 43 45 46 48 50
30 29 28 27 26 25 25 25 25 24 24 23 23 23 22 22 22 22 23 24 25 27 29 29 30 30 31 32 33 34 35 37 38 39 40 41 42 44 46 48 50 52 54
29 29 28 27 27 27 26 26 25 25 25 25 25 25 24 24 24 25 26 25 26 28 29 30 31 32 32 33 34 35 36 37 38 40 41 43 45 47 50 52 54 56 58
29 29 29 28 27 27 27 27 26 26 26 26 26 25 26 26 25 26 26 26 27 29 30 29 30 32 33 34 35 35 36 37 40 42 44 46 49 51 53 55 56 58 58
27 27 27 27 26 26 26 27 27 26 26 26 26 26 27 26 26 26 27 27 27 27 28 28 29 31 32 33 34 36 38 40 43 45 47 50 52 53 55 56 57 57 58
25 25 25 25 25 25 26 26 26 25 25 26 27 27 26 26 27 27 26 27 28 28 29 29 30 31 32 34 36 38 41 43 45 47 49 51 53 54 55 56 56 56 57

GEFSMW_500_meanwind_108.txt.gz
Wind_Speed
18 16 15 13 11 9 7 7 8 12 14 15 15 16 16 16 17 16 16 15 15 13 11 10 8 7 7 6 5 5 4 4 3 3 3 3 2 1 2 2 2 2 3
18 15 14 13 12 9 8 8 8 10 13 14 15 17 17 17 18 18 17 16 16 14 13 12 10 9 8 7 7 6 5 5 4 4 4 3 2 2 2 2 2 1 1
17 16 15 13 12 10 7 7 6 8 11 13 14 15 16 17 17 17 17 17 16 15 14 13 12 10 10 9 8 7 7 6 5 5 4 4 3 2 2 1 1 1 2
16 15 15 13 12 10 7 6 5 7 8 10 13 13 15 16 18 18 18 18 17 17 15 14 13 12 12 11 10 9 8 8 7 6 6 5 4 4 3 3 3 3 4
15 15 14 13 11 9 7 5 3 6 7 9 10 12 14 17 18 18 18 18 18 17 17 15 15 14 14 13 12 11 10 10 9 8 8 8 7 7 6 6 6 6 6
14 13 12 11 10 9 6 3 3 5 5 7 9 11 12 15 17 18 17 18 18 18 17 17 16 16 15 14 13 13 13 12 12 11 11 10 10 10 10 10 10 10 10
12 11 11 10 10 8 5 3 3 4 5 6 9 12 13 15 17 17 17 17 18 19 18 18 17 16 15 15 15 15 14 14 14 14 13 14 14 13 13 14 14 14 14
10 10 10 10 10 8 6 4 3 4 5 6 8 11 12 13 15 17 16 17 18 19 19 18 18 17 17 16 16 16 16 16 16 16 16 17 17 16 16 17 17 17 17
9 9 10 10 10 9 6 4 3 4 5 6 8 10 12 14 16 16 16 17 18 18 18 19 18 18 18 18 18 18 18 18 18 18 19 19 19 19 19 19 20 20 21
8 9 10 11 11 9 6 5 5 5 5 7 8 10 11 13 16 16 16 17 18 18 18 18 18 18 18 18 18 19 19 20 20 20 21 21 21 21 21 21 22 23 23
10 11 11 11 10 8 5 5 6 6 6 6 8 9 11 13 14 15 15 16 17 18 19 19 19 19 19 20 20 21 21 21 22 23 23 23 22 22 23 24 24 25 25
11 11 11 11 10 9 7 5 6 7 7 6 7 9 11 12 13 13 14 15 16 17 18 19 19 19 20 20 21 22 23 23 24 24 24 25 25 25 25 26 26 27 28
13 12 11 10 10 10 8 8 7 7 8 8 8 10 11 12 13 14 15 15 15 17 18 19 20 20 20 20 21 22 22 23 24 24 25 25 25 26 26 27 28 29 30
14 14 13 12 11 11 11 11 10 9 10 11 11 11 12 13 14 15 15 15 16 17 18 19 19 20 20 21 21 22 22 22 23 23 24 25 26 27 28 29 30 30 31
15 15 14 14 14 13 14 13 12 12 11 12 13 13 13 13 14 15 15 16 16 17 18 19 20 20 20 21 22 23 23 25 25 25 25 26 28 29 30 30 31 32 33
16 16 16 17 17 16 16 15 14 13 13 13 13 14 15 15 15 15 16 16 16 16 18 19 20 21 21 20 21 22 23 24 25 26 27 28 29 30 31 32 33 34 36
20 20 19 18 18 18 17 16 16 15 14 14 14 15 15 15 15 15 15 15 16 17 18 18 19 20 20 21 21 22 23 24 25 27 28 29 30 31 32 33 35 36 38
23 22 22 22 21 20 19 18 16 16 15 15 16 16 17 16 16 16 16 17 18 19 20 20 19 19 20 21 21 22 24 25 26 28 29 30 31 32 34 35 37 39 41
24 23 23 23 23 22 20 19 18 18 18 18 17 17 18 17 17 17 18 18 18 19 20 21 21 21 22 23 24 25 26 27 28 29 31 32 34 36 38 39 41 43 45
25 24 24 25 24 23 22 22 21 21 21 20 20 19 19 18 18 19 19 19 20 21 22 23 23 23 23 25 26 27 28 29 31 33 35 36 38 39 40 42 44 46 48
26 25 25 24 24 23 24 23 23 23 23 23 22 22 22 21 22 21 21 21 22 23 24 24 24 25 26 28 28 29 31 32 34 35 37 38 39 41 43 45 47 48 50
25 25 24 24 23 24 24 24 23 24 24 25 24 25 26 25 25 24 23 23 23 23 25 27 27 28 29 30 31 32 33 34 35 37 38 40 41 43 45 46 48 49 51
25 25 25 24 24 24 24 23 23 24 25 26 27 27 26 25 25 25 25 25 25 25 27 28 29 30 31 32 33 34 35 36 37 38 39 41 42 44 45 47 49 51 53
26 26 25 25 25 24 24 24 23 23 25 26 26 26 26 26 25 25 25 26 27 29 29 30 30 31 32 33 34 34 35 37 40 41 41 42 43 45 47 49 51 53 55
26 25 24 24 24 24 24 24 24 24 25 25 25 25 26 26 25 25 26 27 27 28 28 29 31 31 32 33 34 36 37 39 40 41 42 43 45 47 49 51 52 54 55
26 25 24 24 24 24 25 24 24 24 25 25 25 25 25 25 25 25 25 26 27 28 29 30 31 32 32 33 35 36 36 38 40 42 43 44 46 47 48 50 51 52 52